World > North America > United States > Ohio

West Point, Ohio Regional Weather

Lat: 40.71N, Lon: 80.7W
Wx Zone: OHZ041Web Search

Helpful Tip: Type the letters wx in the search engine next time you need to find us.

Feedback


°F Click to change West Point hourly weather to Imperial units.Click to change West Point hourly weather to Metric units. °C
West Point Weather Map
UTC Time: 5/6/2021, 01:28
Your Time:

West Point, OH Regional Weather

Expires:202105060200;;659506
ASUS41 KCLE 060112
RWRCLE
OHIO REGIONAL WEATHER ROUNDUP
NATIONAL WEATHER SERVICE WILMINGTON, OH
900 PM EDT WED MAY 05 2021

NOTE: "FAIR" INDICATES FEW OR NO CLOUDS BELOW 12,000 FEET WITH NO
SIGNIFICANT WEATHER AND/OR OBSTRUCTIONS TO VISIBILITY.


OHZ036-037-039>041-045>050-054>059-063>069-073>076-082>088-060200-
  CENTRAL AND SOUTHEAST OHIO
  
CITY           SKY/WX    TMP DP  RH WIND       PRES   REMARKS
COLUMBUS       FAIR      48  36  63 N3        30.10R                  
OSU AIRPORT    FAIR      49  36  61 N3        30.10R                  
BOLTON FIELD     N/A     47  37  70 N5        30.11R                  
RICKENBACK AFB FAIR      47  35  62 NE6       30.10R                  
NEWARK         FAIR      48  37  65 CALM      30.10R                  
MARION         FAIR      48  38  68 CALM      30.11R                  
LANCASTER      FAIR      48  37  65 N7        30.11R                  
ZANESVILLE     FAIR      45  35  68 NW7       30.10R                  
NEW PHILLY     CLOUDY    47  39  74 CALM      30.10R                  
$$
  

SKY/WX - Weather  TMP - Temperature  DP - Dew Point  RH - Relative Humidity
WIND - Wind Direction/Speed PRES - Barometric Pressure VSB - Visibility
WCI - Wind Chill Index E13G22 Wind - East Wind 13 mph/Gusts of 22 mph